DECAYED

STARLINK-1013, 44719 (Decayed)

Orbit data source: Space-Track

STARLINK-1013, 44719 was a payload satellite owned by SpaceX/Seattle (US) in LEO that was launched on Mon, 11 Nov 2019 UTC via an FALCON 9 launch vehicle from the Air Force Eastern Test Range (AFETR). Payload-class satellites include a variety of spacecraft equipped with specific instruments for various scientific and technological missions. These include communications satellites like Starlink; space stations such as the ISS; scientific satellites like the Hubble; Earth observation satellites from companies like Planet Labs, Umbra, and HawkEye 360; GPS; miniature CubeSats for education and research; and military/defense satellites.

Not visible in the next 10 days
Identifier
44719, 2019-074G
Orbit
Decayed
Country
Flag of USUS
Related business
Manufacturer
SpaceX/Seattle
Mission
Decayed Commercial Communications
Bus & Motor
STARLINK, Unknown motor
Mass
260 kg wet, ~248 kg dry
Launch date (UTC)
2019-11-11 (7 years ago)
Launch vehicle
FALCON 9
Launch site
Air Force Eastern Test Range (AFETR)
Object type
Payload
Rocket body
Debris
Shape & HBR
Box + 1 Pan, 10.1 m
Radar Cross Section
13.562 m², Large (>1 m²)

Expand to show TLE details & history
Last TLE update: 10 months ago

TLE from 10 months ago
0 STARLINK-1013
1 44719U 19074G   25244.12290139  .11986814  12529-4  16608-3 0  9995
2 44719  53.0317 254.9213 0007480 235.4607 124.5738 16.48582617322171
Epoch: 2025-09-01T02:56Z
TLE epoch observation values (Epoch: 2025-09-01T02:56:58.680Z)
Latitude
0.00005°
Longitude
-129.85618°
Altitude
146.772 km
Speed
7.818 km/s
True Right ascension
16h 59m 41s
True Declination
0° 00' 00"
Sunlit
Object was in daylight at epoch
Visualization orbit readout
Latitude
Unknown
Longitude
Unknown
Altitude
Unknown
Speed
Unknown
Apparent Right ascension
Unknown
Apparent Declination
Unknown
Sunlit
N/A
Visualization observer readout
Local Sidereal Time
21:38:01
Azimuth
Unknown
Elevation
Unknown
Doppler factor
Unknown
Orbital elements
Apogee altitude
148.24 km
Perigee altitude
138.483 km
Semi-major axis
6,521.499 km
Eccentricity
0.00075
Inclination
53.0317°
RAAN
254.9213°
Arg. of periapsis
235.4607°
True anomaly
124.64434°
Mean anomaly
124.5738°
Eccentric anomaly
124.60907°
Mean motion
4.12118 °/min
Orbital period
87.35 mins
BSTAR
0.00016608
Loading maneuver chart data...
Computing Atmospheric mass density...

Documentation

Showing up to 5 results
|